Gillette, WY

1:15 PM MDT on April 30, 2017 (GMT -0600)
Gillette-Campbell County

Weather History for KGCC - January, 2015

Change the Weather History Date:

Sunday, January 25, 2015

  Actual Average Record
Temperature  
Mean Temperature 41 °F 26 °F  
Max Temperature 53 °F 37 °F 55 °F (2014)
Min Temperature 28 °F 15 °F 10 °F (2017)
Degree Days  
Heating Degree Days 24 39  
Month to date heating degree days 997 980  
Since 1 July heating degree days 3923 4121  
Cooling Degree Days 0 0  
Month to date cooling degree days 0 0  
Year to date cooling degree days 0 0  
Moisture  
Dew Point 30 °F    
Average Humidity 68    
Maximum Humidity 89    
Minimum Humidity 46    
Precipitation  
Precipitation T in 0.02 in 0.00 in (2017)
Month to date precipitation 0.27 0.29  
Year to date precipitation 0.27 0.29  
Sea Level Pressure  
Sea Level Pressure 30.09 in    
Wind  
Wind Speed 10 mph (WSW)    
Max Wind Speed 15 mph    
Max Gust Speed 20 mph    
Visibility 10 miles    
Events      
T = Trace of Precipitation, MM = Missing Value Source: NWS Daily Summary

Daily Weather History Graph

Daily Weather History Graph

Search for Another Location

Airport or City:

Trip Planner

Search our weather history database for the weather conditions in past years. The results will help you decide how hot, cold, wet, or windy it might be!

Date:

Astronomy

Jan. 25, 2015 Rise Set
Actual Time 7:27 AM MST 5:01 PM MST
Civil Twilight 6:56 AM MST 5:33 PM MST
Nautical Twilight 6:20 AM MST 6:08 PM MST
Astronomical Twilight 5:46 AM MST 6:42 PM MST
Moon 10:20 AM MST (1/25) 11:45 PM MST (1/25)
Length of Visible Light 10h 37m
Length of Day
9h 34m
Waxing Crescent, 34% of the Moon is Illuminated
Jan 25
Waxing Crescent
Jan 26
First Quarter
Feb 3
Full
Feb 11
Last Quarter
Feb 18
New

Hourly Weather History & Observations

Time (MST) Temp. Windchill Dew Point Humidity Pressure Visibility Wind Dir Wind Speed Gust Speed Precip Events Conditions
12:53 AM 30.0 °F 22.4 °F 25.0 °F 82% 30.13 in 10.0 mi West 8.1 mph - N/A   Clear
1:53 AM 32.0 °F 23.0 °F 26.1 °F 79% 30.13 in 10.0 mi West 11.5 mph - N/A   Clear
2:53 AM 30.0 °F - 24.1 °F 79% 30.15 in 10.0 mi Calm Calm - N/A   Clear
3:53 AM 30.9 °F 25.2 °F 26.1 °F 82% 30.15 in 10.0 mi NNW 5.8 mph - N/A   Clear
4:53 AM 33.1 °F 25.5 °F 28.9 °F 85% 30.14 in 10.0 mi West 9.2 mph - N/A   Mostly Cloudy
5:53 AM 34.0 °F 26.0 °F 30.0 °F 85% 30.15 in 10.0 mi West 10.4 mph - N/A   Mostly Cloudy
6:53 AM 35.1 °F 27.9 °F 30.0 °F 82% 30.13 in 10.0 mi WSW 9.2 mph - N/A   Overcast
7:53 AM 36.0 °F 28.5 °F 30.0 °F 79% 30.13 in 10.0 mi WSW 10.4 mph - 0.00 in   Overcast
8:53 AM 37.0 °F 31.6 °F 30.9 °F 79% 30.12 in 10.0 mi SW 6.9 mph - N/A   Overcast
9:53 AM 39.9 °F 33.4 °F 32.0 °F 73% 30.10 in 10.0 mi SW 10.4 mph - N/A   Overcast
10:53 AM 43.0 °F 36.0 °F 33.1 °F 68% 30.10 in 10.0 mi SW 13.8 mph - N/A   Mostly Cloudy
11:53 AM 46.9 °F - 34.0 °F 61% 30.06 in 10.0 mi SW 13.8 mph - N/A   Clear
12:53 PM 50.0 °F - 35.1 °F 57% 30.05 in 10.0 mi SW 12.7 mph - N/A   Mostly Cloudy
1:53 PM 52.0 °F - 34.0 °F 50% 30.01 in 10.0 mi WSW 10.4 mph - N/A   Clear
2:53 PM 53.1 °F - 33.1 °F 47% 30.01 in 10.0 mi West 12.7 mph - N/A   Clear
3:53 PM 51.1 °F - 33.1 °F 50% 30.04 in 10.0 mi West 12.7 mph - N/A   Clear
4:53 PM 43.0 °F 37.2 °F 32.0 °F 65% 30.06 in 10.0 mi West 10.4 mph - N/A   Clear
5:53 PM 42.1 °F 35.7 °F 30.9 °F 65% 30.07 in 10.0 mi West 11.5 mph - N/A   Clear
6:53 PM 42.1 °F 35.7 °F 30.9 °F 65% 30.08 in 10.0 mi West 11.5 mph - N/A   Clear
7:53 PM 39.0 °F 31.8 °F 30.0 °F 70% 30.09 in 10.0 mi West 11.5 mph - N/A   Clear
8:53 PM 41.0 °F 34.3 °F 30.0 °F 65% 30.10 in 10.0 mi West 11.5 mph - N/A   Clear
9:53 PM 41.0 °F 35.2 °F 30.0 °F 65% 30.09 in 10.0 mi West 9.2 mph - N/A   Clear
10:53 PM 41.0 °F 35.8 °F 28.9 °F 62% 30.10 in 10.0 mi West 8.1 mph - N/A   Clear
11:53 PM 44.1 °F 38.1 °F 28.9 °F 55% 30.08 in 10.0 mi West 11.5 mph - N/A   Clear